sat.trackr.live / text

‹ back to catalog

STARLINK-37541

NORAD 68906 · 2026-097M

PAYLOAD ACTIVE UNKNOWN

§ Identity

Operator
Country
US
Launch date
2026-04-30
Launch site
AFWTR
Launch vehicle
Mass (kg)
RCS (m²)

Purposes: comms

External: N2YO · Heavens-Above · Gunter

§ Orbital elements

Epoch: 2026-09-20T00:25:54.125184Z

Period
93.91 min
Inclination
97.2846°
Eccentricity
0.0001716
Mean motion
15.33461277 rev/d
Perigee alt
464.3 km
Apogee alt
466.7 km
Semi-major
6,843.6 km
B*
3.7200e-4
RAAN
97.1015°
Arg perigee
97.5789°
Mean anomaly
262.5649°
Rev number
2,201

§ Raw data

STARLINK-375411 68906U 26097M   26263.01798756  .00011960  00000+0  37200-3 0  99962 68906  97.2846  97.1015 0001716  97.5789 262.5649 15.33461277 22018

JSON: /api/v1/satellites/68906 · /tle

For live sub-satellite position, see the globe view (requires WebGL).

§ Visibility from observer

Set your observer location to see the next 7 days of passes ≥ 10°. The values pass through the URL so the page stays shareable.

No JS? Fill the form by hand. The geolocation button needs JavaScript.